Location: Unspecified
(0.0000°N, 0.0000°E)
Time: 06:10:45
(UTC+00:00)

Vanguard 2 Rocket - Visible Passes

Search period start: 24 March 2017 00:00
Search period end: 03 April 2017 00:00
Orbit: 553 x 3328 km, 32.9° (Epoch: 22 March)

Date Brightness Start Highest point End Pass type
(mag) Time Alt. Az. Time Alt. Az. Time Alt. Az.
24 Mar 10.3 04:57:19 10° N 04:58:50 10° NNE 05:00:26 10° NNE visible
26 Mar 10.4 05:10:00 10° N 05:15:22 13° NNE 05:21:43 10° NE visible
27 Mar 9.1 20:21:44 10° SSW 20:21:54 11° SSW 20:21:54 11° SSW visible
28 Mar 10.3 05:23:18 10° N 05:31:21 18° NNE 05:41:41 10° ENE visible
28 Mar 8.4 19:22:47 10° SSW 19:26:02 15° SSE 19:26:12 15° SSE visible
29 Mar 10.3 04:27:41 10° NNE 04:29:46 10° NNE 04:32:00 10° NE visible
29 Mar 8.9 18:23:58 10° S 18:25:56 11° SSE 18:27:42 10° SSE visible
29 Mar 9.0 20:35:36 10° SW 20:36:23 14° SW 20:36:23 14° SW visible
30 Mar 10.2 05:36:49 10° NNW 05:46:41 26° NE 06:00:20 10° E visible
30 Mar 7.5 19:35:53 10° SSW 19:40:46 30° SSE 19:40:46 30° SSE visible
31 Mar 10.2 04:39:14 10° N 04:45:30 16° NNE 04:53:30 10° ENE visible
31 Mar 8.3 18:36:00 10° SSW 18:41:35 21° SSE 18:45:12 12° ESE visible
31 Mar 9.2 20:50:20 10° WSW 20:51:03 13° WSW 20:51:03 13° WSW visible
01 Apr 6.7 19:49:58 10° SW 19:55:31 59° SSW 19:55:31 59° SSW visible
02 Apr 10.0 04:52:22 10° NNW 05:00:37 24° NE 05:12:20 10° E visible
02 Apr 7.4 18:49:34 10° SW 18:56:55 41° SSE 19:00:01 21° E visible
